Location: Belloy
(55.7522°N, 118.2333°W)
Time: 23:17:46
(UTC+00:00)

Envisat - Pass Details

Date: 09 December 2021
Orbit: 764 x 766 km, 98.2° (Epoch: 27 January)

Event Time Altitude Azimuth Distance (km) Brightness Sun altitude
Rises 12:23:45 0° 19° (NNE) 3,249 6.5 -30.1°
Reaches altitude 10° 12:26:13 10° 27° (NNE) 2,318 5.8 -29.8°
Maximum altitude 12:31:00 39° 96° (E) 1,145 4.3 -29.1°
Drops below altitude 10° 12:35:44 10° 165° (SSE) 2,300 5.6 -28.5°
Sets 12:38:11 0° 173° (S) 3,222 6.3 -28.1°
